| time (UTC) | temp C | wind direction | speed KPH | gust KPH | rain 1hr cm | rain 24hr cm | rain mn cm | humidity % | barometer mb |
| 20260509185522 | 15 | 73 | 0.0 | 3.2 | 0.00 | 0.00 | 0.00 | 69 | 1015.7 |
| 20260509184522 | 16 | 73 | 0.0 | 0.0 | 0.00 | 0.00 | 0.00 | 66 | 1015.6 |
| 20260509183521 | 17 | 73 | 0.0 | 0.0 | 0.00 | 0.00 | 0.00 | 62 | 1015.5 |
| 20260509182522 | 17 | 73 | 0.0 | 6.4 | 0.00 | 0.00 | 0.00 | 59 | 1015.4 |
| 20260509181524 | 17 | 72 | 0.0 | 4.8 | 0.00 | 0.00 | 0.00 | 56 | 1015.3 |
| 20260509180522 | 18 | 71 | 0.0 | 6.4 | 0.00 | 0.00 | 0.00 | 55 | 1015.4 |
| 20260509174522 | 18 | 96 | 1.6 | 11.3 | 0.00 | 0.00 | 0.00 | 53 | 1015.5 |
| 20260509173521 | 18 | 80 | 3.2 | 11.3 | 0.00 | 0.00 | 0.00 | 53 | 1015.3 |
| 20260509172525 | 18 | 81 | 3.2 | 9.7 | 0.00 | 0.00 | 0.00 | 52 | 1015.5 |
| 20260509171520 | 18 | 70 | 1.6 | 8.0 | 0.00 | 0.00 | 0.00 | 53 | 1015.5 |
| 20260509170520 | 18 | 93 | 3.2 | 12.9 | 0.00 | 0.00 | 0.00 | 46 | 1015.6 |
| 20260509165521 | 19 | 96 | 1.6 | 12.9 | 0.00 | 0.00 | 0.00 | 53 | 1015.5 |
| 20260509163525 | 20 | 117 | 3.2 | 9.7 | 0.00 | 0.00 | 0.00 | 48 | 1015.6 |
| 20260509162521 | 20 | 96 | 0.0 | 4.8 | 0.00 | 0.00 | 0.00 | 48 | 1015.8 |
| 20260509154519 | 20 | 61 | 3.2 | 8.0 | 0.00 | 0.00 | 0.00 | 48 | 1016.1 |
| 20260509153516 | 19 | 78 | 1.6 | 8.0 | 0.00 | 0.00 | 0.00 | 48 | 1016.2 |
| 20260509152515 | 19 | 105 | 0.0 | 9.7 | 0.00 | 0.00 | 0.00 | 49 | 1016.2 |
| 20260509151513 | 19 | 71 | 0.0 | 9.7 | 0.00 | 0.00 | 0.00 | 50 | 1016.3 |
| 20260509150516 | 19 | 23 | 3.2 | 12.9 | 0.00 | 0.00 | 0.00 | 51 | 1016.4 |
| 20260509145514 | 19 | 92 | 3.2 | 14.5 | 0.00 | 0.00 | 0.00 | 52 | 1016.5 |
| 20260509144518 | 18 | 31 | 1.6 | 8.0 | 0.00 | 0.00 | 0.00 | 51 | 1016.5 |
| 20260509143513 | 18 | 346 | 3.2 | 11.3 | 0.00 | 0.00 | 0.00 | 51 | 1016.5 |
| 20260509142515 | 19 | 96 | 3.2 | 9.7 | 0.00 | 0.00 | 0.00 | 50 | 1016.7 |
| 20260509141515 | 19 | 44 | 3.2 | 11.3 | 0.00 | 0.00 | 0.00 | 46 | 1016.7 |
| 20260509140514 | 18 | 174 | 3.2 | 11.3 | 0.00 | 0.00 | 0.00 | 52 | 1016.7 |
| 20260509134509 | 19 | 55 | 4.8 | 16.1 | 0.00 | 0.00 | 0.00 | 53 | 1016.9 |
| 20260509133511 | 19 | 67 | 6.4 | 12.9 | 0.00 | 0.00 | 0.00 | 52 | 1017.0 |
| 20260509132512 | 19 | 165 | 0.0 | 8.0 | 0.00 | 0.00 | 0.00 | 52 | 1017.0 |
| 20260509131522 | 18 | 171 | 3.2 | 12.9 | 0.00 | 0.00 | 0.00 | 54 | 1017.3 |
| 20260509130510 | 18 | 117 | 1.6 | 9.7 | 0.00 | 0.00 | 0.00 | 55 | 1017.4 |
| 20260509125511 | 18 | 111 | 1.6 | 14.5 | 0.00 | 0.00 | 0.00 | 54 | 1017.6 |
| 20260509124512 | 18 | 112 | 4.8 | 12.9 | 0.00 | 0.00 | 0.00 | 55 | 1017.8 |
| 20260509123511 | 17 | 120 | 0.0 | 11.3 | 0.00 | 0.00 | 0.00 | 58 | 1017.8 |
| 20260509122509 | 17 | 80 | 3.2 | 11.3 | 0.00 | 0.00 | 0.00 | 60 | 1017.9 |
| 20260509121524 | 17 | 48 | 3.2 | 9.7 | 0.00 | 0.00 | 0.00 | 60 | 1018.2 |
| 20260509120507 | 16 | 35 | 0.0 | 8.0 | 0.00 | 0.00 | 0.00 | 60 | 1018.3 |
| 20260509115509 | 17 | 69 | 3.2 | 9.7 | 0.00 | 0.00 | 0.00 | 52 | 1018.4 |
| 20260509114510 | 17 | 70 | 3.2 | 9.7 | 0.00 | 0.00 | 0.00 | 59 | 1018.5 |
| 20260509113509 | 16 | 25 | 1.6 | 6.4 | 0.00 | 0.00 | 0.00 | 60 | 1018.5 |
| 20260509112520 | 16 | 24 | 3.2 | 9.7 | 0.00 | 0.00 | 0.00 | 61 | 1018.7 |
| 20260509111508 | 16 | 124 | 6.4 | 16.1 | 0.00 | 0.00 | 0.00 | 59 | 1018.8 |
| 20260509110509 | 17 | 88 | 4.8 | 12.9 | 0.00 | 0.00 | 0.00 | 58 | 1018.8 |
| 20260509105506 | 17 | 60 | 3.2 | 11.3 | 0.00 | 0.00 | 0.00 | 63 | 1018.9 |
| 20260509103505 | 17 | 65 | 4.8 | 17.7 | 0.00 | 0.00 | 0.00 | 65 | 1019.1 |
| 20260509102505 | 16 | 55 | 4.8 | 12.9 | 0.00 | 0.00 | 0.00 | 66 | 1019.1 |
| 20260509101506 | 16 | 115 | 4.8 | 14.5 | 0.00 | 0.00 | 0.00 | 67 | 1019.2 |
| 20260509100507 | 16 | 92 | 6.4 | 16.1 | 0.00 | 0.00 | 0.00 | 68 | 1019.1 |
| 20260509095522 | 15 | 29 | 6.4 | 12.9 | 0.00 | 0.00 | 0.00 | 70 | 1019.3 |
| 20260509094507 | 15 | 97 | 8.0 | 14.5 | 0.00 | 0.00 | 0.00 | 70 | 1019.3 |
| 20260509092504 | 15 | 0 | 3.2 | 12.9 | 0.00 | 0.00 | 0.00 | 72 | 1019.5 |
| 20260509091508 | 15 | 69 | 4.8 | 12.9 | 0.00 | 0.00 | 0.00 | 74 | 1019.5 |
| 20260509090505 | 15 | 109 | 4.8 | 11.3 | 0.00 | 0.00 | 0.00 | 73 | 1019.6 |
| 20260509083505 | 14 | 79 | 1.6 | 12.9 | 0.00 | 0.00 | 0.00 | 77 | 1019.3 |
| 20260509082517 | 13 | 115 | 6.4 | 12.9 | 0.00 | 0.00 | 0.00 | 69 | 1019.5 |
| 20260509081506 | 13 | 58 | 4.8 | 11.3 | 0.00 | 0.00 | 0.00 | 78 | 1019.5 |
| 20260509075507 | 12 | 61 | 4.8 | 8.0 | 0.00 | 0.00 | 0.00 | 83 | 1019.5 |
| 20260509074507 | 12 | 43 | 4.8 | 8.0 | 0.00 | 0.00 | 0.00 | 84 | 1019.6 |
| 20260509073506 | 11 | 30 | 1.6 | 8.0 | 0.00 | 0.00 | 0.00 | 86 | 1019.6 |
| 20260509072506 | 11 | 42 | 3.2 | 6.4 | 0.00 | 0.00 | 0.00 | 88 | 1019.5 |
| 20260509071505 | 10 | 63 | 0.0 | 6.4 | 0.00 | 0.00 | 0.00 | 90 | 1019.5 |
| 20260509070507 | 10 | 67 | 0.0 | 3.2 | 0.00 | 0.00 | 0.00 | 92 | 1019.6 |
| 20260509065511 | 9 | 68 | 0.0 | 3.2 | 0.00 | 0.00 | 0.00 | 94 | 1019.7 |
| 20260509064506 | 8 | 69 | 0.0 | 0.0 | 0.00 | 0.00 | 0.00 | 94 | 1019.6 |
| 20260509063507 | 7 | 69 | 0.0 | 0.0 | 0.00 | 0.00 | 0.00 | 94 | 1019.5 |
| 20260509062510 | 7 | 69 | 0.0 | 0.0 | 0.00 | 0.00 | 0.00 | 94 | 1019.5 |
| 20260509061512 | 6 | 69 | 0.0 | 0.0 | 0.00 | 0.00 | 0.00 | 94 | 1019.5 |
| 20260509060511 | 6 | 69 | 0.0 | 0.0 | 0.00 | 0.00 | 0.00 | 93 | 1019.5 |
| 20260509055504 | 6 | 69 | 0.0 | 0.0 | 0.00 | 0.00 | 0.00 | 93 | 1019.4 |
| 20260509054510 | 5 | 69 | 0.0 | 0.0 | 0.00 | 0.00 | 0.00 | 94 | 1019.4 |
| 20260509053510 | 4 | 69 | 0.0 | 0.0 | 0.00 | 0.00 | 0.00 | 94 | 1019.5 |
| 20260509052520 | 4 | 69 | 0.0 | 0.0 | 0.00 | 0.00 | 0.00 | 94 | 1019.5 |
| 20260509051510 | 4 | 69 | 0.0 | 0.0 | 0.00 | 0.00 | 0.00 | 94 | 1019.3 |
| 20260509050505 | 4 | 69 | 0.0 | 0.0 | 0.00 | 0.00 | 0.00 | 94 | 1019.4 |
| 20260509045509 | 3 | 69 | 0.0 | 0.0 | 0.00 | 0.00 | 0.00 | 94 | 1019.2 |
| 20260509044507 | 3 | 69 | 0.0 | 0.0 | 0.00 | 0.00 | 0.00 | 94 | 1019.2 |
| 20260509043505 | 3 | 69 | 0.0 | 0.0 | 0.00 | 0.00 | 0.00 | 95 | 1019.1 |
| 20260509042507 | 3 | 69 | 0.0 | 0.0 | 0.00 | 0.00 | 0.00 | 95 | 1019.1 |
| 20260509041507 | 3 | 69 | 0.0 | 0.0 | 0.00 | 0.00 | 0.00 | 95 | 1019.1 |
| 20260509040505 | 3 | 69 | 0.0 | 0.0 | 0.00 | 0.00 | 0.00 | 95 | 1019.1 |
| 20260509035510 | 3 | 69 | 0.0 | 0.0 | 0.00 | 0.00 | 0.00 | 95 | 1019.2 |
| 20260509034505 | 3 | 69 | 0.0 | 0.0 | 0.00 | 0.00 | 0.00 | 95 | 1019.1 |
| 20260509033503 | 3 | 69 | 0.0 | 0.0 | 0.00 | 0.00 | 0.00 | 95 | 1019.1 |
| 20260509032504 | 3 | 69 | 0.0 | 0.0 | 0.00 | 0.00 | 0.00 | 95 | 1019.1 |
| 20260509031503 | 3 | 69 | 0.0 | 0.0 | 0.00 | 0.00 | 0.00 | 95 | 1019.2 |
| 20260509030528 | 3 | 69 | 0.0 | 0.0 | 0.00 | 0.00 | 0.00 | 95 | 1019.4 |
| 20260509025505 | 3 | 69 | 0.0 | 0.0 | 0.00 | 0.00 | 0.00 | 95 | 1019.4 |
| 20260509024502 | 3 | 69 | 0.0 | 0.0 | 0.00 | 0.00 | 0.00 | 95 | 1019.4 |
| 20260509023514 | 3 | 69 | 0.0 | 0.0 | 0.00 | 0.00 | 0.00 | 94 | 1019.4 |
| 20260509022502 | 3 | 69 | 0.0 | 0.0 | 0.00 | 0.00 | 0.00 | 95 | 1019.6 |
| 20260509021502 | 4 | 69 | 0.0 | 0.0 | 0.00 | 0.00 | 0.00 | 94 | 1019.5 |
| 20260509020501 | 4 | 69 | 0.0 | 0.0 | 0.00 | 0.00 | 0.00 | 95 | 1019.5 |
| 20260509015502 | 4 | 69 | 0.0 | 0.0 | 0.00 | 0.00 | 0.00 | 95 | 1019.4 |
| 20260509012500 | 5 | 69 | 0.0 | 0.0 | 0.00 | 0.00 | 0.00 | 94 | 1019.5 |
| 20260509011504 | 5 | 69 | 0.0 | 0.0 | 0.00 | 0.00 | 0.00 | 94 | 1019.5 |
| 20260509005501 | 5 | 69 | 0.0 | 0.0 | 0.00 | 0.00 | 0.00 | 94 | 1019.5 |
| 20260509003504 | 5 | 69 | 0.0 | 0.0 | 0.00 | 0.00 | 0.00 | 94 | 1019.6 |
| 20260509002501 | 5 | 69 | 0.0 | 0.0 | 0.00 | 0.00 | 0.00 | 94 | 1019.6 |
| 20260509000459 | 6 | 69 | 0.0 | 0.0 | 0.00 | 0.00 | 0.00 | 94 | 1019.6 |
| 20260508234501 | 6 | 69 | 0.0 | 0.0 | 0.00 | 0.00 | 0.00 | 93 | 1019.5 |
| 20260508232459 | 6 | 69 | 0.0 | 0.0 | 0.00 | 0.00 | 0.00 | 93 | 1019.6 |
| 20260508231459 | 6 | 69 | 0.0 | 0.0 | 0.00 | 0.00 | 0.00 | 93 | 1019.6 |
| 20260508230510 | 7 | 69 | 0.0 | 0.0 | 0.00 | 0.00 | 0.00 | 92 | 1019.6 |
| 20260508225459 | 7 | 69 | 0.0 | 0.0 | 0.00 | 0.00 | 0.00 | 92 | 1019.5 |
| 20260508224457 | 7 | 69 | 0.0 | 0.0 | 0.00 | 0.00 | 0.00 | 92 | 1019.5 |
| 20260508223457 | 7 | 69 | 0.0 | 0.0 | 0.00 | 0.00 | 0.00 | 92 | 1019.5 |
| 20260508222514 | 7 | 69 | 0.0 | 0.0 | 0.00 | 0.00 | 0.00 | 91 | 1019.3 |
| 20260508220459 | 8 | 69 | 0.0 | 0.0 | 0.00 | 0.00 | 0.00 | 90 | 1019.1 |
| 20260508215458 | 8 | 69 | 0.0 | 0.0 | 0.00 | 0.00 | 0.00 | 90 | 1019.1 |
| 20260508213500 | 9 | 69 | 0.0 | 0.0 | 0.00 | 0.00 | 0.00 | 88 | 1019.1 |
| 20260508212457 | 9 | 69 | 0.0 | 0.0 | 0.00 | 0.00 | 0.00 | 88 | 1019.2 |
| 20260508211455 | 10 | 69 | 0.0 | 6.4 | 0.00 | 0.00 | 0.00 | 87 | 1019.2 |
| 20260508210456 | 10 | 69 | 0.0 | 4.8 | 0.00 | 0.00 | 0.00 | 86 | 1019.1 |
| 20260508205450 | 10 | 69 | 0.0 | 3.2 | 0.00 | 0.00 | 0.00 | 86 | 1018.9 |
| 20260508204456 | 10 | 69 | 0.0 | 0.0 | 0.00 | 0.00 | 0.00 | 85 | 1018.9 |
| 20260508203457 | 11 | 69 | 1.6 | 4.8 | 0.00 | 0.00 | 0.00 | 84 | 1018.9 |
| 20260508202454 | 11 | 69 | 0.0 | 3.2 | 0.00 | 0.00 | 0.00 | 83 | 1018.9 |
| 20260508201458 | 11 | 69 | 0.0 | 0.0 | 0.00 | 0.00 | 0.00 | 83 | 1018.9 |
| 20260508200453 | 11 | 69 | 0.0 | 0.0 | 0.00 | 0.00 | 0.00 | 82 | 1018.8 |
| 20260508195456 | 12 | 69 | 0.0 | 3.2 | 0.00 | 0.00 | 0.00 | 81 | 1018.8 |
| 20260508194454 | 12 | 69 | 0.0 | 3.2 | 0.00 | 0.00 | 0.00 | 80 | 1018.7 |
| 20260508192452 | 12 | 57 | 4.8 | 9.7 | 0.00 | 0.00 | 0.00 | 78 | 1018.4 |
| 20260508191456 | 12 | 63 | 3.2 | 8.0 | 0.00 | 0.00 | 0.00 | 77 | 1018.2 |
| 20260508190457 | 13 | 58 | 3.2 | 8.0 | 0.00 | 0.00 | 0.00 | 77 | 1018.0 |